Temp_Advection
nan nan nan nan nan nan nan nan nan nan nan nan nan nan nan nan nan nan nan nan nan nan nan nan nan nan nan nan nan nan nan nan nan nan nan nan nan nan nan nan nan nan nan nan nan nan nan nan nan nan nan nan nan nan nan nan nan nan nan nan nan nan nan nan nan nan nan nan nan
nan 1 1 1 0 0 0 0 0 0 -0 -0 0 0 0 0 0 0 0 0 -0 -0 -0 -0 -0 -0 0 0 0 0 0 0 0 0 -0 -0 -0 -0 -0 -0 -0 -0 -0 -0 0 0 0 0 0 0 0 0 0 0 0 0 0 0 0 0 1 1 2 1 0 1 1 0 nan
nan 1 1 1 0 0 0 0 0 0 -0 0 0 0 0 0 0 0 0 -0 -0 -0 -0 -0 0 0 0 0 0 0 0 0 0 0 -0 -0 -0 -0 0 -0 -0 -0 -0 -0 0 0 0 0 0 0 0 0 0 1 1 1 1 1 0 0 1 1 2 1 0 -0 -0 -0 nan
nan 1 1 1 0 0 0 0 0 0 0 0 0 0 0 0 0 0 -0 -0 -0 -0 -0 0 0 0 0 0 0 0 0 0 0 0 0 -0 -0 0 0 -0 -0 -0 -0 -0 0 0 0 0 0 0 -0 -0 0 0 0 1 1 1 1 1 1 1 1 0 -0 -0 -0 -0 nan
nan 1 1 1 1 0 0 0 0 0 0 0 0 0 0 0 0 0 -0 0 -0 -0 0 0 0 0 0 0 0 -0 -0 0 0 0 0 0 0 0 0 -0 -0 -0 0 0 0 0 0 0 0 0 -0 0 0 -0 -0 0 1 1 1 1 1 0 0 0 0 0 0 -0 nan
nan 1 1 1 1 0 0 0 0 0 0 0 0 0 -0 -0 0 0 0 0 0 0 0 0 0 0 0 0 -0 -0 -0 0 0 0 0 0 0 -0 -0 -0 0 0 0 0 0 0 0 0 0 -0 -0 0 0 -0 -0 0 0 0 0 0 0 0 -0 -0 -0 -0 0 0 nan
nan 1 1 1 1 0 0 0 0 0 0 0 0 0 -0 -0 0 0 0 0 0 0 0 0 0 0 0 0 -0 -0 -0 -0 0 0 0 0 0 -0 -0 0 0 0 0 0 0 0 0 0 0 0 -0 0 0 0 1 0 0 -0 -0 0 0 0 -0 -0 -1 -1 -1 -0 nan
nan 1 1 1 1 0 0 0 0 0 0 0 0 0 -0 0 0 0 0 0 0 0 0 0 0 0 0 0 -0 -0 -0 -0 0 0 1 1 0 0 -0 0 0 1 0 0 0 1 0 0 0 -0 -0 0 0 1 1 1 -0 -1 -0 0 0 -0 -1 -1 -1 -1 -0 0 nan
nan 1 1 1 1 0 0 0 0 0 0 0 -0 0 0 0 0 0 0 0 0 0 0 0 0 0 0 0 -0 -0 -0 0 0 0 1 1 1 1 0 0 0 0 0 1 1 1 1 0 -0 -0 -0 0 1 1 1 0 -1 -1 -1 -1 -0 -1 -1 -1 -0 0 1 1 nan
nan 1 1 1 0 0 0 0 0 0 0 0 0 0 0 0 0 0 0 0 0 0 0 0 0 -0 0 0 -0 -0 -0 0 0 0 1 1 1 1 1 0 0 0 0 0 1 1 1 0 -0 -0 -0 0 1 1 1 -0 -1 -1 -1 -1 -1 -0 0 0 0 0 0 0 nan
nan 1 0 0 0 0 0 0 0 0 0 0 0 0 0 0 0 0 0 -0 -0 -0 0 0 0 0 -0 0 -0 -0 -0 0 0 1 1 1 1 2 1 1 1 0 -0 0 1 1 1 0 0 -0 0 1 1 0 -0 -0 -1 -1 -1 -1 -0 0 0 0 0 0 0 0 nan
nan 0 0 0 0 0 0 0 0 0 0 0 0 0 0 0 0 0 -0 -0 -0 -0 -0 0 0 0 0 -0 -0 0 0 0 1 1 1 1 1 2 2 1 1 1 1 0 1 1 0 0 0 0 0 0 0 -0 -0 -0 -0 -0 -1 -0 -0 0 0 0 0 0 -0 0 nan
nan 0 0 0 0 0 0 0 0 0 0 0 0 0 0 0 0 -0 -0 -0 -0 -0 -0 -0 0 0 0 0 0 0 0 1 1 1 1 1 1 2 2 2 1 1 1 1 1 0 -0 -0 -0 -0 -0 0 -0 -0 -0 -0 -0 -0 -0 -0 -0 0 0 0 -0 -0 -0 -0 nan
nan 0 0 0 0 0 0 -0 -0 -0 -0 -0 0 0 0 0 0 -0 -0 -0 -0 -0 -0 -0 -0 -0 0 0 0 0 1 1 1 1 0 0 2 3 2 2 1 2 2 1 0 -1 -0 -0 -0 -0 -0 -0 -0 -0 -0 -0 -0 -0 -0 -0 -0 0 0 0 -0 -0 -0 -0 nan
nan 0 0 0 0 0 -0 -0 -0 -0 -0 0 0 0 0 0 -0 -0 -0 -0 -0 -0 -0 -0 -0 -0 0 0 -0 0 1 2 2 1 0 0 2 2 2 1 1 2 2 0 -1 -1 -0 -0 -0 -0 -0 -0 -0 -0 -0 -0 -0 -0 -0 -0 -0 -0 0 0 -0 -0 -0 -0 nan
nan 0 0 0 -0 -0 -0 -0 -0 -0 0 0 0 0 0 -0 -0 -0 -0 -0 -0 -0 0 -0 -0 -0 -0 0 0 0 1 1 1 1 1 1 2 2 2 1 1 1 1 -0 -1 -0 0 -0 -0 -0 -1 -1 -1 -0 -0 -0 -0 -0 -0 -0 -0 -0 -0 -0 -0 -0 -0 -0 nan
nan 0 -0 -0 -0 -0 -0 -0 0 0 0 0 0 -0 -0 -0 -0 -0 -0 -0 -0 -0 -0 -0 -0 -0 0 0 0 1 1 1 1 2 2 2 2 2 2 1 1 1 1 -0 -0 -0 -0 -0 -1 -1 -1 -1 -0 -0 -0 -0 -0 -0 -0 -0 -0 -0 -0 -0 -0 -0 -0 0 nan
nan -0 -0 -0 -0 -0 -0 0 0 0 -0 -0 -0 -0 -0 -0 -0 -0 -0 -0 -0 -0 -0 -0 -0 0 0 -0 0 1 2 2 1 1 1 2 2 2 1 1 1 1 1 0 -0 -0 -1 -1 -1 -1 -0 -0 -0 -0 -0 -0 -0 -0 -0 -0 -0 -0 -0 -0 -0 -0 -0 -0 nan
nan -0 -0 -0 -0 -0 0 0 0 -0 -0 -0 -0 -0 -0 -0 -0 -0 -0 -0 -0 0 -0 -0 -0 -0 -0 -0 -0 1 2 2 2 1 1 1 2 2 1 1 0 0 0 1 0 -0 -1 -1 -1 -1 -0 -0 -0 -0 -0 -0 -0 -0 -0 -0 -0 -0 -0 -0 -0 -0 -0 -0 nan
nan -0 -0 -0 -0 0 0 0 0 -0 -0 -0 -0 0 -0 -0 -0 -0 -0 -0 -0 0 0 0 0 0 0 -0 -0 -0 0 2 2 2 2 2 2 1 1 1 0 -0 0 0 1 0 -1 -1 -1 -1 -0 -0 -0 -1 -0 -0 -0 -0 -0 -0 -0 -0 -0 -0 -0 -0 -0 -0 nan
nan -0 -0 -0 -0 0 0 0 -0 -0 -0 -0 -0 -0 -0 -0 -0 -0 -0 -0 -0 0 0 0 0 0 1 1 0 -1 -1 0 2 2 2 2 2 1 1 0 0 -0 -0 0 0 0 -0 -0 -0 -0 -0 -0 -1 -0 -0 -0 -0 -0 -0 -0 -0 -0 -0 -0 -0 -0 -0 -0 nan
nan -0 -0 -0 -0 0 0 -0 -0 -0 -0 0 0 0 -0 -0 -0 -0 -0 0 0 0 0 0 0 1 1 1 1 -0 -1 -1 0 1 2 2 2 1 1 0 0 -0 -0 -0 0 0 -0 -0 -0 -0 -0 -0 -0 -0 -0 -0 -0 -0 -0 -0 -0 -0 0 -0 -0 -0 -0 -0 nan
nan -0 -0 -0 0 0 -0 -0 -0 -0 0 0 0 0 -0 -0 -0 -0 -0 0 0 0 0 0 0 1 1 1 1 1 0 -0 -0 -0 1 1 1 1 1 1 1 0 -0 0 0 0 -0 -0 -0 -0 -0 -0 -0 -0 -0 -0 -0 -0 -0 -0 -0 -0 0 0 -0 -0 -0 0 nan
nan -0 -0 -0 -0 -0 -0 -0 -0 -0 0 0 0 -0 -0 -0 -0 -0 -0 0 0 0 0 0 1 1 1 1 1 1 1 1 0 -0 -0 0 0 0 1 1 1 1 0 0 0 0 -0 -0 -0 -0 -0 -0 -0 -0 -0 -0 -0 -0 -0 -0 -0 -0 0 0 -0 0 0 0 nan
nan -1 -0 -0 -0 0 -0 -0 -0 0 0 0 -0 -0 -0 -0 -0 -0 -0 -0 0 0 0 0 1 1 1 1 1 1 1 1 1 1 0 -0 -0 0 0 0 1 1 0 0 0 0 0 -0 -0 -0 -0 -0 -0 -0 -0 -0 -0 -0 -0 -0 -0 0 0 0 0 0 1 1 nan
nan -1 -0 -0 0 0 -0 -0 -0 0 0 -0 -0 -0 -0 -0 -0 -0 -0 -0 -0 0 0 0 1 1 1 1 1 1 1 1 1 1 1 0 0 0 1 0 0 0 0 0 0 0 0 0 -0 -0 -0 -0 -0 -0 -0 -0 0 0 0 0 0 0 0 0 1 1 1 0 nan
nan -1 -0 -0 0 -0 -0 -0 -0 0 0 -0 -0 -0 -0 -0 -0 -0 -0 -0 -0 0 0 0 0 1 1 1 1 1 1 1 1 1 1 0 0 1 1 1 0 0 -0 0 0 1 1 0 -0 -0 -0 -0 -0 -0 -0 0 1 0 0 0 0 0 0 1 1 1 1 0 nan
nan -0 -0 0 -0 -0 -0 -0 -0 0 0 -0 -0 -0 -0 -0 -0 -0 -0 -0 0 0 0 0 0 0 1 1 1 1 1 1 1 1 1 1 0 0 1 1 0 0 0 0 0 1 1 1 0 -1 -1 -0 0 0 1 1 1 1 0 0 0 0 1 1 1 1 0 0 nan
nan -0 -0 -0 -0 -0 -0 -0 -0 0 0 0 -0 -0 -0 -0 -0 -0 -0 -0 -0 0 0 1 0 0 0 1 1 1 1 1 1 1 1 0 0 0 1 1 0 0 0 0 1 1 1 2 1 -1 -2 -1 1 1 1 1 1 1 0 0 0 0 0 1 0 0 0 0 nan
nan -0 -0 -0 0 -0 -0 0 0 0 0 0 0 -0 -0 -0 -0 -0 -0 -0 0 0 0 0 0 0 1 1 1 1 1 1 1 1 1 0 0 1 1 1 0 -0 -0 0 1 1 2 2 1 -1 -2 -1 1 2 2 1 1 1 0 0 0 0 0 0 0 0 0 0 nan
nan -0 -0 0 0 0 0 0 0 -0 0 0 0 -0 -0 -0 -0 -0 -0 -0 0 0 0 0 0 0 1 1 1 1 1 1 0 0 0 0 0 1 1 0 -0 -1 -0 1 1 1 2 2 1 -1 -2 -0 1 1 1 1 1 0 0 0 0 0 0 0 0 0 0 0 nan
nan -0 -0 0 0 0 0 0 -0 -0 0 0 0 -0 -0 -0 -0 -0 -0 -0 0 0 0 0 0 1 1 1 1 1 1 1 0 0 0 0 0 1 1 0 -0 -0 0 1 1 1 2 2 -0 -1 -1 1 1 1 1 1 0 0 0 0 0 0 0 0 0 0 0 0 nan
nan -0 -0 0 0 0 0 0 -0 -0 0 0 0 -0 -0 -0 -0 -0 -0 0 0 0 0 -0 -0 0 1 1 1 1 1 1 0 -0 -0 -0 0 0 0 0 0 0 0 1 1 1 1 0 -1 -1 -0 0 0 0 0 0 0 0 -0 -0 0 0 0 0 0 0 0 0 nan
nan -0 -0 0 0 0 0 0 -0 0 0 0 -0 -0 -0 -0 -0 -0 0 0 0 0 0 0 0 0 1 1 1 1 1 0 -0 -0 -0 -0 0 0 0 0 0 0 0 0 1 0 -0 -1 -1 -0 0 0 0 0 0 0 0 0 -0 -0 0 0 0 0 0 0 0 0 nan
nan -0 -0 0 0 1 0 0 0 0 0 -0 -0 -0 -0 -0 -0 0 0 0 0 0 0 0 0 1 1 1 1 1 1 0 -0 -0 -0 -0 0 0 0 0 0 -0 -0 0 -0 -0 -1 -1 -0 0 0 0 0 0 0 0 0 0 0 0 0 0 0 0 0 0 0 0 nan
nan -0 -0 0 1 1 1 0 0 0 0 -0 -0 -0 -0 -0 0 1 1 0 0 0 0 0 1 1 1 1 1 1 0 0 -0 -0 0 0 0 0 0 0 -0 -0 -0 -0 -0 -0 -0 -0 0 0 0 0 0 0 0 0 0 0 0 0 0 0 0 0 0 0 -0 -0 nan
nan -0 1 1 1 1 1 0 0 -0 -0 -0 -0 -0 -0 -0 0 1 1 0 0 0 0 1 1 1 1 1 1 0 0 0 0 -0 -0 -0 0 0 0 0 0 -0 -0 -0 -0 -0 -0 -0 -0 -0 0 0 0 0 0 0 0 0 0 0 0 0 0 0 -0 -0 -0 -0 nan
nan 0 1 2 2 1 1 0 -0 -0 -0 -0 -0 -0 -0 0 0 1 1 0 0 0 1 1 1 2 1 1 0 0 0 0 -0 -0 -0 -0 0 0 0 0 0 0 0 0 0 0 -0 -0 -0 0 0 0 0 0 0 0 0 0 0 0 0 0 0 -0 -0 -0 -0 -0 nan
nan 0 2 2 2 1 0 -0 -0 -0 -0 -0 -0 -0 -0 0 1 1 1 1 0 0 1 1 2 2 1 1 0 0 0 0 -0 -0 -0 -0 0 0 0 0 0 0 0 0 0 0 -0 0 0 0 0 0 0 0 0 0 0 0 0 0 -0 -0 -0 -0 -0 -0 -0 -0 nan
nan 1 1 2 1 1 -0 -0 -0 -0 -0 -0 -0 -0 -0 0 1 1 1 1 1 1 1 1 2 1 1 1 0 0 0 0 -0 -0 -0 -0 0 0 0 0 0 0 0 0 0 0 0 0 0 0 0 0 0 0 0 0 0 -0 -0 -0 -0 -0 -0 -0 -0 -0 0 0 nan
nan nan nan nan nan nan nan nan nan nan nan nan nan nan nan nan nan nan nan nan nan nan nan nan nan nan nan nan nan nan nan nan nan nan nan nan nan nan nan nan nan nan nan nan nan nan nan nan nan nan nan nan nan nan nan nan nan nan nan nan nan nan nan nan nan nan nan nan nan
Wind_Speed
26 26 26 26 25 25 25 24 24 24 23 23 22 22 22 21 21 21 21 21 21 21 21 21 21 22 22 23 23 24 24 24 24 24 24 25 25 25 25 25 25 25 25 25 25 25 25 25 24 24 24 24 24 24 24 24 23 23 23 23 23 24 24 23 22 21 21 22 23
26 26 25 25 25 24 24 23 23 23 23 22 22 22 21 21 20 20 20 20 21 21 21 21 21 22 23 23 24 24 24 23 24 24 25 25 26 26 26 26 26 26 26 25 25 25 24 24 24 24 24 24 24 23 23 23 22 22 22 22 22 22 22 21 21 20 20 21 21
26 25 25 24 24 23 23 23 23 23 22 22 22 21 21 20 20 20 20 20 21 21 21 21 22 22 23 23 24 24 24 24 24 25 25 26 26 26 26 26 26 26 26 26 25 25 24 24 24 24 24 24 23 23 22 21 21 20 20 20 21 20 20 19 20 21 21 22 22
26 25 25 24 24 23 23 23 23 22 22 22 21 21 20 20 20 20 20 20 21 21 21 21 22 22 23 23 24 24 24 24 24 25 26 26 27 27 27 27 26 26 26 26 25 25 24 24 24 23 23 23 23 23 22 21 20 19 18 18 18 18 19 20 21 22 23 23 23
27 26 25 24 24 23 23 23 22 22 22 21 21 20 20 20 20 20 20 20 21 21 21 22 22 22 23 23 24 25 25 25 25 25 26 27 27 27 27 27 27 26 26 26 25 24 24 23 23 23 23 22 22 21 20 20 19 18 17 16 16 16 16 18 19 20 21 22 22
27 26 25 25 24 24 23 23 22 22 22 21 21 21 20 20 20 20 20 20 21 21 22 22 22 23 23 24 24 25 25 26 26 26 26 27 27 27 27 27 27 26 26 25 25 24 23 22 22 22 22 21 20 19 19 18 17 16 16 15 14 14 14 15 16 17 18 20 20
26 25 25 24 24 23 23 23 23 22 22 22 21 21 20 20 20 20 20 20 21 21 22 22 22 22 23 24 25 26 26 26 26 26 26 27 27 27 28 27 27 26 25 25 24 23 22 22 21 21 21 20 18 18 17 16 15 14 14 14 14 14 14 16 17 19 21 22 23
26 25 24 24 24 23 23 23 23 22 22 21 21 21 20 20 20 20 20 20 21 21 22 22 22 23 23 24 25 26 26 27 27 27 27 27 27 27 27 27 26 25 25 24 23 22 22 21 21 20 19 18 17 16 15 14 14 14 15 15 15 15 16 17 19 21 23 23 23
25 25 24 24 23 23 23 23 22 22 22 21 21 20 20 19 19 20 20 20 21 21 21 22 22 23 24 25 25 26 27 27 27 27 27 27 27 27 27 27 26 25 25 24 22 21 20 20 19 19 18 17 15 14 14 14 14 15 16 17 17 17 18 19 20 20 20 19 18
25 24 24 24 23 23 23 22 22 21 21 20 20 20 19 19 19 19 20 20 20 21 21 22 23 23 24 25 25 26 27 27 28 28 28 27 27 26 26 26 26 25 25 24 22 20 19 17 16 16 16 14 13 13 14 14 15 15 16 17 18 17 16 15 15 15 15 14 14
24 24 24 23 23 23 22 22 21 21 20 20 19 19 18 18 18 19 19 20 21 21 21 22 23 23 24 25 25 26 27 27 27 28 28 27 27 26 25 25 25 25 24 23 21 19 17 15 14 13 13 12 12 13 14 15 15 15 16 17 16 13 11 10 10 10 11 11 12
24 24 24 23 23 22 22 21 21 20 19 19 18 18 18 18 18 19 20 20 21 21 22 22 23 24 24 25 25 26 26 27 27 27 28 28 27 26 25 25 25 24 23 21 19 17 16 14 13 12 11 11 12 13 14 15 15 16 17 17 16 14 11 8 8 8 9 11 12
24 24 24 23 22 22 21 20 20 19 19 18 18 18 18 18 18 19 20 20 21 21 22 23 23 23 24 24 25 25 26 26 27 27 28 28 27 26 25 24 23 22 21 19 18 17 16 16 15 14 12 12 12 13 13 13 14 15 16 17 17 16 14 11 9 9 9 11 12
25 24 23 22 21 21 20 19 19 19 18 18 18 17 18 18 19 19 20 20 21 21 22 22 23 23 24 24 25 25 25 26 26 27 28 28 27 25 23 22 21 20 19 18 18 17 17 17 17 16 15 14 13 13 13 13 14 15 16 16 16 16 16 14 11 10 11 11 13
24 23 22 21 20 20 19 18 18 18 18 18 17 18 18 18 19 20 20 21 21 21 22 22 23 23 24 24 24 25 25 26 26 26 27 26 25 23 22 20 19 19 19 19 18 18 18 18 18 18 17 16 15 14 14 13 14 15 15 16 16 16 15 14 13 12 12 12 13
23 22 21 20 20 19 18 17 17 17 17 17 17 17 18 18 19 20 20 20 21 21 21 22 22 23 23 24 24 25 25 25 25 26 26 25 24 22 21 19 19 19 19 19 19 19 19 19 19 19 18 18 17 16 15 15 15 15 16 16 16 16 15 14 14 13 13 13 14
23 22 21 20 19 18 17 17 17 16 16 16 16 17 17 18 18 19 20 20 20 21 21 21 22 23 23 24 24 24 25 25 25 25 25 24 23 22 21 20 20 20 21 21 21 20 20 20 20 20 20 19 18 18 17 17 17 17 17 17 16 16 15 15 15 15 15 15 15
22 21 21 20 19 18 17 16 16 16 16 16 16 16 16 17 18 19 19 20 20 20 21 21 22 23 23 24 24 24 24 24 24 24 24 24 23 23 22 22 22 22 22 23 23 22 22 22 21 21 21 20 19 19 19 19 19 19 19 18 18 17 16 16 16 16 16 16 16
22 21 20 20 19 18 17 16 16 15 15 16 16 16 16 17 18 18 19 19 20 20 20 21 22 22 23 24 24 23 23 22 22 23 23 23 23 23 23 23 23 23 24 24 24 24 23 23 23 22 22 21 20 20 20 20 20 20 20 19 19 18 18 17 17 17 18 18 18
22 21 21 20 19 18 17 16 16 15 15 16 16 16 16 17 17 18 19 19 20 20 20 21 21 22 23 23 24 23 23 22 21 21 22 22 23 23 24 24 24 24 24 24 24 24 24 24 24 24 23 22 21 21 21 21 21 21 20 20 20 19 19 18 18 19 19 19 19
22 21 21 20 19 18 17 16 15 15 15 15 16 16 16 17 17 18 18 19 19 20 20 21 21 22 22 23 23 23 23 23 22 21 21 22 22 23 24 24 25 25 25 25 25 25 25 25 25 24 24 23 22 22 22 22 22 22 21 21 20 20 19 19 19 19 20 20 20
22 21 21 20 19 18 16 16 15 15 15 15 16 16 17 17 18 18 18 19 19 19 20 20 21 21 21 21 22 23 23 23 23 23 22 22 23 23 24 25 25 25 25 25 25 26 26 26 26 25 25 24 24 23 23 23 23 23 22 22 21 21 20 20 20 20 21 21 21
22 21 21 20 19 17 16 16 15 15 15 15 16 16 17 17 18 18 18 18 19 19 19 20 20 20 20 21 21 22 23 23 24 24 23 23 23 24 24 24 25 25 25 25 25 26 26 26 26 26 25 25 24 24 24 24 24 24 23 23 22 22 21 21 21 21 21 21 21
22 22 21 20 19 17 17 16 15 15 15 16 16 16 17 18 18 18 18 18 18 19 19 20 20 20 20 20 21 21 22 23 23 24 24 24 24 24 24 24 24 24 25 25 25 25 26 26 26 26 26 26 25 25 25 25 25 24 24 23 23 22 22 22 22 21 21 21 20
23 22 21 20 19 18 17 16 15 15 15 16 16 17 17 18 18 19 19 19 19 19 20 20 20 20 20 21 21 21 22 23 23 24 24 25 24 24 24 23 23 24 24 24 25 25 25 26 26 26 26 26 26 26 26 25 25 24 24 24 23 23 22 22 22 21 20 20 19
23 22 21 20 19 18 17 16 16 16 16 16 17 17 18 18 19 19 19 19 19 20 20 20 20 20 21 21 22 22 23 23 23 24 24 24 24 24 24 23 23 24 24 24 24 24 25 25 26 26 26 26 26 26 25 25 25 25 24 24 23 22 21 21 20 20 19 18 17
24 23 22 21 19 18 17 17 16 16 16 16 17 18 18 19 19 19 19 19 20 20 20 20 21 21 21 22 22 22 23 23 24 24 24 24 24 24 23 24 24 24 24 24 24 24 24 24 25 25 25 25 25 25 25 25 25 24 23 23 22 21 20 18 18 17 16 15 14
24 23 22 21 20 19 18 18 17 16 16 17 17 18 19 19 19 19 19 19 20 20 20 20 21 21 21 22 22 22 23 23 24 24 24 24 24 24 24 24 24 24 23 23 23 23 23 23 23 24 24 24 24 24 24 23 23 22 21 20 19 18 17 16 15 14 14 13 12
25 24 23 22 21 20 19 19 18 17 17 17 18 18 19 19 20 20 20 20 20 20 20 20 21 21 21 22 22 23 23 23 24 24 24 25 25 25 24 24 23 23 23 22 22 21 20 20 19 20 22 22 22 21 21 20 20 19 18 17 16 14 13 13 13 12 12 11 11
26 25 24 22 22 21 20 20 19 18 18 18 18 19 19 20 20 20 20 20 20 20 20 20 21 21 21 22 22 23 23 23 24 24 24 24 24 24 24 23 23 22 22 21 20 19 18 17 16 18 19 19 18 17 16 16 15 15 14 13 13 12 11 11 11 11 10 10 10
27 26 25 24 23 22 22 21 20 20 19 19 19 19 20 20 20 20 20 20 20 20 20 20 20 21 21 22 22 22 21 22 22 23 23 22 22 21 21 21 21 20 20 18 17 16 15 14 15 16 17 16 14 13 13 12 12 12 11 11 10 10 10 10 10 10 10 10 10
28 27 26 25 25 24 23 23 22 21 20 20 19 20 20 20 21 21 20 20 20 20 20 20 20 21 21 21 20 20 19 18 18 19 18 17 16 16 16 16 15 15 14 13 12 12 11 12 14 15 14 12 11 10 10 10 10 10 10 10 10 9 9 9 9 9 10 10 10
30 29 28 27 26 26 25 24 23 22 21 21 20 20 20 21 21 21 21 20 20 20 20 20 20 20 20 19 18 17 16 15 14 14 13 12 11 11 10 10 9 9 9 9 8 8 10 11 12 12 10 9 9 9 9 9 9 9 9 9 9 9 9 9 9 9 10 10 10
31 30 29 29 28 27 27 26 25 24 23 22 21 21 21 21 21 21 20 20 20 20 20 20 20 20 19 18 16 14 13 13 12 11 10 9 8 7 7 6 6 6 6 6 7 8 9 11 11 9 8 8 8 9 9 9 9 9 9 9 9 9 9 9 9 9 10 10 10
33 32 31 31 30 29 29 28 27 25 24 22 21 21 21 21 21 20 20 20 20 20 20 20 20 20 18 16 13 11 11 11 10 9 8 7 6 5 5 5 6 6 5 6 7 9 10 10 9 8 8 8 9 9 9 9 9 9 9 9 9 9 9 9 9 10 10 10 10
33 33 32 32 31 30 30 29 28 26 25 23 22 21 21 21 20 20 19 19 20 19 19 20 19 18 16 13 11 9 8 8 8 8 7 6 5 4 5 6 6 6 6 7 9 10 10 10 9 9 9 9 9 9 9 9 9 9 10 10 9 9 9 9 9 10 10 10 10
32 33 33 32 32 31 30 29 28 27 25 24 22 21 20 20 20 19 19 19 19 18 19 19 18 16 14 12 10 8 7 8 8 8 7 6 5 5 5 6 7 7 8 8 9 10 10 10 9 9 9 9 9 9 9 10 10 10 10 10 10 9 9 9 9 9 10 10 9
31 31 32 31 31 30 29 29 28 27 25 23 22 21 20 20 19 19 19 19 18 17 17 17 16 14 12 10 9 8 8 9 9 8 8 7 6 5 5 6 7 7 8 8 9 10 10 10 9 9 9 9 9 9 10 10 10 10 10 10 10 10 9 9 9 10 10 10 9
29 30 30 29 29 28 28 28 27 26 24 22 21 20 20 19 18 18 18 18 18 17 17 16 14 13 11 10 9 9 9 10 9 9 9 9 8 7 6 6 7 7 8 9 9 10 10 10 9 9 9 9 10 10 10 10 11 11 11 10 10 10 10 10 10 10 10 10 10
27 27 27 27 27 27 27 27 26 25 23 22 21 20 19 18 17 17 18 18 18 17 16 15 14 12 11 10 10 10 10 11 11 10 11 10 9 8 8 7 8 8 9 9 10 10 10 10 10 10 10 10 10 10 11 11 11 11 11 10 10 10 10 10 10 10 10 10 10
26 26 26 25 26 26 26 26 25 24 23 21 20 19 18 17 17 17 18 18 18 17 16 14 13 12 11 11 11 11 12 12 12 12 12 12 11 10 9 9 9 9 10 10 10 10 10 10 10 10 10 10 11 11 11 11 11 11 11 11 10 10 10 10 10 11 11 10 10
Wind_Direction
242 243 244 245 246 247 248 249 250 250 251 252 252 254 255 257 259 261 264 265 267 268 270 273 275 278 280 282 283 284 285 285 285 284 283 283 283 283 283 283 283 284 284 284 284 283 283 282 281 280 279 278 278 277 276 274 273 271 270 269 268 267 266 265 263 261 257 254 254
245 245 245 245 246 247 248 248 249 249 250 251 252 254 257 259 261 263 265 266 267 269 271 273 275 278 280 281 282 283 284 284 284 283 283 283 283 284 284 284 284 285 284 284 284 283 282 281 279 278 277 277 276 276 275 274 272 271 269 268 266 266 266 266 267 265 262 260 261
247 246 246 246 246 246 247 247 248 249 250 252 254 256 258 260 262 263 264 265 267 269 271 273 276 278 279 280 281 282 282 282 282 283 283 283 284 285 285 285 285 285 285 284 284 283 282 280 279 278 278 277 276 275 274 272 270 267 265 264 264 263 262 260 261 261 261 261 263
248 248 247 247 247 247 247 247 248 250 252 254 256 257 259 260 260 261 263 265 267 269 271 273 275 277 278 279 280 281 281 282 282 282 283 284 284 285 285 285 284 285 284 284 284 283 282 281 280 280 279 279 279 277 275 272 267 262 259 258 259 257 254 250 250 251 253 253 255
248 248 248 247 247 247 248 249 250 251 253 254 255 256 257 258 259 260 262 264 266 269 271 273 275 276 278 279 280 281 281 282 283 283 283 284 284 285 285 284 284 284 284 284 283 282 282 281 281 280 280 281 281 281 280 277 271 265 259 256 256 255 253 250 249 250 251 251 251
248 247 247 247 247 248 249 249 250 251 252 253 253 254 254 256 257 259 261 263 266 269 271 273 275 277 278 280 280 281 282 283 284 284 284 284 284 284 284 284 284 284 284 283 282 281 281 280 280 280 281 281 282 282 282 280 277 272 267 262 260 259 261 263 264 263 263 261 258
247 247 246 246 247 247 248 249 250 250 251 251 252 252 253 254 256 258 260 263 266 269 272 274 276 278 279 280 281 282 283 284 285 285 284 284 284 284 284 284 284 283 282 281 280 280 279 278 278 278 279 279 279 279 279 278 276 273 271 268 265 264 265 267 269 268 265 261 257
247 246 245 245 245 246 247 247 248 249 249 250 250 251 252 254 256 258 261 264 267 270 273 275 277 279 280 280 281 283 284 285 285 285 284 283 283 283 283 283 282 281 279 278 277 277 276 276 277 278 278 277 274 274 273 272 268 267 267 267 265 262 261 262 262 260 257 253 248
245 244 243 243 243 244 245 246 246 247 247 248 249 250 252 255 257 260 263 266 269 272 274 276 278 279 280 281 282 283 284 284 284 284 283 282 281 281 281 280 279 278 277 276 274 273 273 273 275 277 277 274 270 268 266 264 261 261 263 264 261 256 253 253 255 256 253 248 242
243 242 241 241 241 242 243 244 244 245 245 246 248 251 254 257 260 263 266 268 271 273 275 276 278 279 280 281 282 283 283 284 284 283 283 282 280 279 278 277 276 275 274 273 271 268 267 268 271 274 275 272 267 263 260 257 257 259 262 262 258 252 246 244 244 246 248 247 244
241 240 239 240 240 241 241 241 242 243 244 246 249 252 256 259 263 265 268 270 272 274 276 277 278 279 280 281 282 282 283 283 283 282 281 280 279 277 275 274 273 273 272 270 268 264 262 262 265 269 270 265 259 256 253 252 253 257 261 263 261 254 244 236 230 230 235 242 246
237 236 236 237 238 238 238 239 240 241 243 247 250 254 258 262 265 268 270 272 274 275 277 277 278 280 281 282 282 282 282 282 281 280 279 278 277 275 273 272 271 270 269 267 264 261 258 257 258 260 260 257 252 249 248 249 251 255 259 264 265 261 252 242 232 228 233 239 244
232 232 232 233 234 235 235 237 239 242 245 249 253 257 261 265 267 270 272 274 275 276 278 278 279 280 281 282 282 282 281 281 280 279 278 277 276 275 273 271 269 266 264 263 261 259 257 256 254 254 253 253 251 249 248 249 251 253 257 262 266 267 265 260 253 247 246 248 249
228 228 229 230 231 232 234 237 240 244 248 252 257 261 264 268 270 272 274 275 277 278 279 280 281 281 282 282 281 281 280 280 279 278 278 278 277 276 274 271 267 263 260 259 259 259 259 258 256 253 250 250 251 249 248 249 250 252 255 259 264 268 269 268 263 258 256 257 259
225 226 227 228 230 232 236 240 245 249 253 257 261 265 268 271 273 274 276 277 279 280 281 282 283 283 283 282 282 281 280 279 279 278 279 279 278 277 275 272 268 263 259 257 257 258 259 260 258 254 251 250 249 249 248 248 249 250 253 255 259 262 265 267 264 261 259 259 261
224 225 227 229 232 235 240 245 250 254 259 263 266 269 272 274 275 277 278 280 281 282 283 284 284 284 283 283 282 282 281 280 279 279 279 278 277 276 273 270 266 262 259 257 257 258 259 260 258 255 253 251 250 249 249 250 250 251 252 253 255 257 259 261 261 260 259 258 258
225 226 228 231 235 239 244 249 254 259 263 267 270 273 275 277 278 279 280 282 283 284 285 285 284 283 283 283 283 282 282 281 280 279 277 276 274 271 268 265 263 261 258 257 256 257 258 258 257 256 254 253 252 251 251 252 252 252 253 253 253 254 255 256 257 257 257 257 256
226 228 231 234 238 242 247 252 258 262 266 269 272 275 278 280 281 282 283 284 285 286 286 286 285 284 284 283 284 284 283 282 281 278 276 274 272 269 266 263 262 260 258 257 256 256 257 257 257 257 257 256 254 254 253 254 254 255 255 254 254 254 254 255 256 257 259 261 261
229 231 234 237 241 245 249 255 260 264 269 272 275 278 281 283 284 285 286 287 287 287 287 286 286 285 285 286 286 286 285 282 280 277 275 274 272 269 267 264 262 260 258 257 256 256 256 257 258 259 259 258 257 256 256 256 257 257 258 258 258 258 258 259 261 262 264 267 269
231 233 236 239 243 247 252 257 262 267 271 275 279 282 284 285 286 288 289 289 289 288 288 287 286 286 286 287 288 288 286 284 281 278 275 273 271 269 267 265 263 261 259 258 256 256 256 256 258 259 260 260 259 259 259 259 259 260 261 262 262 263 264 265 266 268 270 272 273
233 235 238 241 245 249 254 259 264 269 275 279 283 285 287 288 289 290 290 290 289 289 288 287 287 286 286 287 287 288 287 285 283 280 276 273 270 268 266 265 263 261 260 258 257 256 256 257 258 259 260 261 261 260 260 260 261 261 262 263 264 266 267 268 269 271 272 274 275
235 237 240 243 246 251 256 261 267 272 278 282 285 288 290 291 292 292 291 291 290 288 287 287 286 285 285 284 284 284 284 284 283 280 277 273 270 268 266 265 263 262 260 259 257 257 257 257 257 258 259 260 260 261 261 261 262 262 263 264 265 267 268 268 269 270 272 274 274
237 239 242 245 248 252 257 263 269 275 280 285 288 291 293 294 294 294 293 292 290 288 286 285 284 283 282 280 279 278 279 280 280 279 277 275 272 269 267 266 264 263 261 260 259 259 258 258 258 259 259 259 260 260 260 261 261 262 263 264 265 266 267 267 267 269 271 271 271
239 241 244 246 250 254 259 265 271 277 283 288 291 294 296 297 297 296 295 293 291 288 286 284 283 281 280 278 276 275 275 276 277 277 277 276 274 273 271 269 267 265 264 262 261 260 260 260 260 260 260 260 260 260 260 261 261 262 263 264 264 265 265 265 266 267 268 268 267
240 243 245 248 251 256 261 267 273 279 285 290 294 296 298 299 299 299 298 295 293 290 287 285 283 282 280 278 277 276 275 275 275 275 276 276 276 275 274 272 270 268 266 264 263 262 261 261 261 261 261 260 260 261 261 261 262 262 262 263 263 263 263 264 265 265 265 264 263
242 244 247 250 253 257 263 268 274 281 287 291 295 298 300 301 301 301 299 297 295 292 289 287 285 283 282 280 279 278 277 276 275 275 275 276 276 275 274 273 271 269 268 266 264 263 263 263 262 262 262 261 262 262 262 262 262 262 262 261 261 260 260 260 261 262 261 260 259
243 245 248 251 255 259 264 269 275 281 287 292 296 299 301 302 302 301 300 298 295 292 290 289 287 285 283 282 281 280 279 277 277 276 276 276 276 275 274 272 271 269 268 266 265 264 264 264 264 263 262 262 261 262 262 262 261 261 260 259 259 258 257 256 256 256 256 256 256
243 246 249 252 256 260 264 269 274 280 285 290 295 298 301 302 302 301 299 297 294 292 290 289 287 285 284 283 282 281 279 278 277 277 276 276 275 274 273 272 271 270 268 267 265 264 264 263 262 262 261 260 259 259 258 258 258 258 257 256 254 253 251 249 249 249 250 251 252
244 247 250 253 257 261 264 269 274 278 284 288 293 297 300 301 301 300 298 296 294 292 289 287 286 285 284 283 282 281 279 278 277 276 275 275 275 274 273 273 272 271 269 268 266 264 262 260 257 257 258 257 256 255 255 254 253 252 251 249 246 244 242 242 242 242 243 245 245
244 247 250 254 257 260 264 268 272 277 281 286 291 295 298 299 300 299 298 296 293 291 288 287 286 285 284 283 281 280 279 278 277 276 275 275 275 275 275 274 273 271 270 268 266 264 259 253 248 249 252 254 253 251 249 246 244 242 240 238 237 235 235 235 236 237 238 238 237
245 248 251 254 257 260 264 267 271 275 279 283 288 292 296 298 298 298 296 294 292 290 288 287 287 286 285 284 282 281 279 279 278 277 277 277 277 276 275 274 272 271 270 268 265 260 253 243 239 242 247 250 248 244 239 235 232 230 229 229 230 230 231 231 232 232 231 230 228
245 248 251 253 256 260 263 266 269 272 276 280 285 290 293 296 296 296 295 293 291 289 288 288 288 287 287 286 285 284 283 282 282 282 281 281 279 277 275 274 273 271 269 265 258 250 239 231 233 238 243 244 239 232 226 222 221 222 224 226 227 228 228 228 226 225 223 222 220
245 248 251 253 256 259 262 264 267 270 274 278 282 287 291 293 294 295 294 293 291 289 288 289 289 289 289 289 288 288 288 289 290 291 291 289 286 283 281 279 275 269 262 254 244 231 222 222 228 234 236 230 223 217 214 214 215 218 222 224 226 226 225 222 220 218 216 215 215
244 247 250 253 255 258 260 263 266 268 271 275 279 284 288 291 293 293 293 292 291 290 290 290 291 291 291 289 288 288 290 293 296 298 298 296 291 286 283 280 268 256 246 234 219 210 209 215 221 224 221 214 210 208 207 209 212 216 219 222 223 222 219 216 213 211 212 212 214
244 247 249 252 254 257 259 261 264 266 269 272 277 282 287 290 292 292 292 291 290 290 291 292 293 294 292 289 287 287 289 292 295 298 297 293 285 273 263 257 248 238 223 210 203 203 207 212 214 213 209 205 204 204 205 207 210 213 216 217 217 216 212 210 208 208 210 212 215
245 247 249 251 253 255 257 259 261 264 266 270 275 280 285 289 290 291 290 289 288 288 289 292 294 293 290 286 284 286 287 287 286 285 281 274 263 250 240 236 234 225 213 203 204 206 209 211 209 207 204 203 203 203 204 205 207 209 211 212 211 209 207 206 205 207 210 213 217
246 247 249 251 253 254 256 258 259 261 264 268 273 279 284 287 289 289 288 287 286 286 288 290 291 289 284 279 277 278 279 278 273 268 263 256 249 242 236 232 232 226 217 211 209 210 210 209 206 204 202 202 202 202 203 204 205 206 207 207 206 206 206 206 207 209 212 215 218
247 248 249 251 252 254 255 256 257 259 262 266 272 277 282 285 286 286 285 283 282 282 284 287 286 282 276 271 270 270 268 265 260 256 251 245 240 237 235 231 230 227 222 216 214 212 209 207 203 201 200 200 199 200 201 202 203 204 204 205 205 205 207 210 213 216 217 217 218
249 249 251 252 253 253 253 254 255 257 260 265 270 276 280 283 284 282 280 279 279 280 281 282 280 273 266 261 261 261 258 255 253 250 247 241 235 231 228 226 225 224 221 217 214 211 208 205 201 199 198 198 198 198 200 200 201 202 203 204 206 208 210 214 218 221 223 223 221
253 252 253 253 253 252 252 252 253 255 258 263 269 274 278 280 280 278 275 275 277 279 280 279 273 262 253 251 254 254 252 251 249 248 246 242 236 230 225 221 217 216 216 215 213 210 207 203 200 199 198 198 198 198 199 199 200 202 204 206 209 212 215 219 223 226 227 227 225
257 256 255 254 252 250 249 249 251 253 257 262 268 272 275 276 275 273 272 272 275 279 280 276 265 251 243 243 247 248 247 246 247 247 246 244 239 233 227 221 215 213 212 212 211 209 205 203 200 200 199 199 199 199 199 200 202 204 206 209 212 216 219 223 226 228 230 230 228
Height
1530 1530 1531 1531 1532 1532 1532 1533 1533 1533 1534 1534 1534 1534 1535 1535 1535 1535 1535 1534 1534 1534 1534 1534 1534 1534 1534 1534 1534 1534 1534 1533 1533 1532 1532 1531 1531 1530 1530 1530 1530 1529 1529 1529 1528 1528 1528 1527 1527 1526 1526 1525 1525 1525 1525 1525 1525 1524 1524 1524 1524 1524 1524 1524 1524 1524 1525 1525 1525
1528 1529 1529 1530 1530 1530 1531 1531 1531 1532 1532 1532 1532 1533 1533 1533 1533 1533 1533 1533 1532 1532 1532 1532 1533 1533 1533 1532 1532 1532 1532 1531 1531 1530 1530 1529 1529 1528 1528 1528 1527 1527 1527 1526 1526 1526 1525 1525 1525 1524 1524 1524 1523 1523 1523 1523 1522 1522 1522 1522 1521 1521 1521 1521 1522 1522 1523 1523 1524
1527 1527 1527 1528 1528 1529 1529 1530 1530 1530 1530 1530 1531 1531 1531 1531 1531 1531 1531 1531 1531 1531 1531 1531 1531 1531 1531 1530 1530 1530 1530 1529 1529 1528 1528 1527 1526 1526 1526 1525 1525 1525 1525 1524 1524 1524 1523 1523 1522 1522 1522 1521 1521 1521 1521 1521 1520 1520 1520 1520 1520 1520 1520 1520 1520 1521 1521 1522 1522
1525 1525 1526 1526 1527 1527 1528 1528 1528 1529 1529 1529 1529 1530 1530 1530 1530 1530 1529 1529 1529 1529 1529 1530 1530 1529 1529 1528 1528 1528 1527 1527 1527 1526 1525 1525 1525 1524 1524 1523 1523 1523 1522 1522 1522 1521 1521 1521 1520 1520 1520 1520 1519 1519 1519 1519 1519 1519 1518 1518 1518 1518 1518 1519 1520 1520 1520 1520 1521
1524 1524 1525 1525 1525 1526 1526 1526 1527 1527 1528 1528 1528 1528 1528 1528 1528 1528 1528 1528 1528 1528 1528 1528 1528 1527 1527 1526 1526 1525 1525 1525 1525 1524 1524 1523 1522 1522 1521 1521 1521 1520 1520 1520 1520 1519 1519 1519 1518 1518 1518 1518 1518 1517 1517 1517 1517 1517 1517 1517 1517 1517 1517 1517 1517 1518 1518 1518 1519
1522 1523 1523 1523 1524 1524 1525 1525 1525 1526 1526 1526 1526 1526 1526 1526 1526 1526 1526 1526 1526 1526 1526 1525 1525 1525 1525 1524 1524 1523 1523 1523 1522 1522 1521 1521 1520 1520 1519 1519 1519 1518 1518 1518 1517 1517 1517 1517 1517 1516 1516 1516 1516 1516 1516 1515 1515 1515 1515 1515 1515 1515 1515 1516 1516 1516 1516 1516 1516
1520 1521 1521 1522 1522 1523 1523 1524 1524 1524 1525 1525 1525 1525 1525 1525 1525 1525 1525 1525 1524 1524 1524 1524 1523 1523 1522 1522 1521 1521 1520 1520 1520 1520 1519 1519 1518 1517 1517 1517 1516 1516 1516 1516 1515 1515 1515 1515 1515 1515 1515 1515 1515 1515 1514 1514 1514 1514 1514 1514 1514 1514 1514 1515 1515 1515 1515 1515 1515
1519 1520 1520 1520 1521 1521 1522 1522 1522 1522 1523 1523 1523 1523 1523 1523 1523 1523 1523 1522 1522 1522 1522 1521 1521 1521 1520 1520 1519 1519 1518 1518 1518 1518 1517 1516 1516 1515 1515 1515 1515 1514 1514 1514 1514 1514 1513 1513 1513 1513 1513 1513 1513 1513 1513 1513 1513 1513 1513 1513 1513 1513 1513 1514 1514 1514 1513 1513 1513
1517 1518 1518 1519 1519 1520 1520 1520 1520 1521 1521 1521 1521 1521 1521 1521 1521 1521 1521 1520 1520 1520 1520 1519 1519 1519 1518 1518 1517 1517 1516 1516 1515 1515 1515 1515 1514 1513 1513 1513 1512 1512 1512 1512 1512 1512 1512 1512 1512 1512 1512 1512 1512 1512 1512 1512 1512 1512 1512 1512 1512 1512 1512 1513 1512 1512 1512 1512 1512
1515 1516 1516 1517 1518 1518 1518 1519 1519 1519 1519 1519 1519 1519 1519 1519 1519 1519 1519 1518 1518 1518 1518 1517 1517 1517 1516 1516 1515 1515 1514 1514 1513 1513 1513 1512 1512 1511 1511 1511 1510 1510 1510 1510 1510 1510 1511 1511 1511 1510 1510 1510 1511 1511 1511 1511 1511 1511 1512 1511 1511 1511 1511 1511 1511 1511 1510 1510 1510
1514 1514 1515 1515 1516 1516 1517 1517 1517 1517 1517 1517 1517 1518 1518 1517 1517 1517 1517 1516 1516 1516 1516 1515 1515 1515 1514 1514 1513 1513 1512 1512 1511 1511 1510 1510 1510 1510 1509 1509 1509 1508 1508 1508 1509 1509 1510 1510 1510 1510 1510 1510 1510 1510 1510 1510 1510 1510 1511 1510 1510 1510 1510 1509 1509 1509 1510 1510 1510
1512 1513 1513 1514 1515 1515 1515 1515 1515 1515 1516 1516 1516 1516 1516 1516 1515 1515 1515 1515 1515 1514 1514 1514 1513 1513 1512 1512 1511 1511 1510 1510 1509 1509 1508 1508 1508 1508 1507 1507 1507 1507 1506 1507 1507 1508 1508 1509 1509 1509 1509 1509 1509 1509 1509 1509 1509 1510 1510 1510 1509 1509 1509 1508 1508 1508 1508 1509 1509
1510 1511 1512 1512 1513 1513 1514 1514 1514 1514 1514 1514 1514 1514 1514 1514 1514 1513 1513 1513 1513 1512 1512 1512 1511 1511 1510 1510 1509 1509 1508 1507 1507 1506 1506 1505 1505 1506 1506 1506 1505 1505 1505 1505 1506 1506 1507 1507 1508 1508 1508 1508 1508 1508 1508 1508 1508 1508 1508 1508 1508 1508 1508 1507 1507 1507 1507 1508 1508
1509 1510 1510 1511 1511 1512 1512 1512 1512 1512 1512 1512 1512 1512 1512 1512 1512 1511 1511 1511 1511 1510 1510 1510 1509 1509 1508 1508 1507 1507 1506 1505 1505 1504 1504 1503 1504 1504 1504 1504 1504 1504 1504 1504 1505 1505 1506 1506 1506 1507 1507 1507 1507 1507 1507 1507 1507 1507 1507 1507 1507 1507 1507 1507 1507 1507 1507 1507 1507
1508 1508 1509 1509 1510 1510 1510 1510 1510 1510 1510 1510 1510 1510 1510 1510 1510 1510 1509 1509 1509 1509 1508 1508 1507 1507 1506 1505 1505 1505 1504 1503 1503 1502 1502 1501 1502 1502 1503 1503 1503 1503 1503 1503 1504 1504 1504 1505 1505 1505 1505 1505 1505 1505 1506 1506 1506 1506 1506 1506 1506 1506 1506 1506 1506 1506 1506 1506 1506
1507 1507 1508 1508 1508 1509 1509 1509 1509 1509 1509 1509 1509 1509 1509 1508 1508 1508 1507 1507 1507 1506 1506 1506 1505 1505 1504 1504 1503 1502 1502 1501 1501 1500 1500 1500 1500 1501 1501 1502 1502 1502 1502 1502 1502 1503 1503 1503 1503 1504 1504 1504 1504 1504 1505 1505 1505 1505 1505 1505 1505 1505 1505 1505 1505 1505 1505 1505 1505
1505 1506 1506 1506 1507 1507 1507 1507 1507 1507 1507 1507 1507 1507 1507 1506 1506 1506 1505 1505 1505 1505 1504 1504 1503 1503 1502 1502 1501 1500 1500 1500 1499 1499 1499 1499 1499 1499 1500 1500 1500 1500 1500 1500 1501 1501 1501 1502 1502 1502 1502 1502 1503 1503 1503 1503 1504 1504 1504 1504 1504 1504 1504 1504 1504 1504 1504 1504 1504
1504 1505 1505 1505 1505 1506 1506 1506 1506 1506 1506 1505 1505 1505 1505 1505 1505 1504 1504 1504 1503 1503 1502 1502 1501 1501 1500 1500 1500 1499 1499 1498 1498 1497 1497 1497 1497 1498 1498 1499 1499 1499 1499 1499 1499 1499 1500 1500 1500 1500 1501 1501 1501 1501 1501 1502 1502 1502 1502 1502 1502 1502 1502 1502 1502 1503 1503 1503 1503
1503 1503 1503 1504 1504 1505 1505 1505 1505 1504 1504 1504 1504 1504 1504 1503 1503 1502 1502 1502 1501 1501 1500 1500 1500 1499 1498 1498 1498 1497 1497 1497 1496 1496 1496 1496 1496 1496 1496 1497 1497 1497 1497 1497 1497 1498 1498 1498 1499 1499 1499 1499 1499 1500 1500 1500 1500 1500 1500 1500 1500 1501 1501 1501 1501 1501 1501 1501 1501
1501 1501 1502 1502 1503 1503 1503 1503 1503 1503 1503 1502 1502 1502 1502 1502 1501 1501 1500 1500 1500 1499 1499 1498 1498 1497 1496 1496 1496 1495 1495 1495 1495 1495 1495 1495 1495 1495 1495 1495 1495 1495 1495 1495 1496 1496 1496 1497 1497 1497 1497 1497 1498 1498 1498 1498 1498 1499 1499 1499 1499 1499 1499 1499 1499 1499 1499 1499 1499
1500 1500 1500 1501 1501 1501 1502 1501 1501 1501 1501 1501 1501 1500 1500 1500 1500 1499 1499 1498 1498 1498 1497 1496 1496 1495 1495 1495 1494 1494 1493 1493 1493 1493 1493 1493 1493 1493 1493 1493 1493 1493 1493 1494 1494 1494 1494 1495 1495 1495 1495 1496 1496 1496 1496 1496 1497 1497 1497 1497 1497 1497 1497 1497 1497 1497 1497 1497 1497
1498 1499 1499 1500 1500 1500 1500 1500 1500 1500 1500 1500 1499 1499 1499 1498 1498 1498 1497 1497 1497 1496 1495 1495 1495 1494 1494 1493 1493 1492 1491 1491 1491 1491 1491 1491 1491 1491 1491 1490 1491 1491 1491 1492 1492 1492 1492 1493 1493 1493 1494 1494 1494 1494 1495 1495 1495 1495 1495 1495 1495 1496 1496 1496 1496 1495 1495 1495 1495
1497 1497 1498 1498 1498 1499 1499 1499 1498 1498 1498 1498 1498 1497 1497 1497 1496 1496 1496 1495 1495 1495 1494 1493 1493 1493 1492 1492 1491 1491 1490 1490 1489 1489 1489 1489 1489 1489 1489 1489 1489 1489 1489 1490 1490 1490 1490 1490 1491 1491 1492 1492 1492 1492 1493 1493 1493 1493 1493 1494 1494 1494 1494 1494 1494 1494 1494 1494 1494
1495 1495 1496 1496 1497 1497 1497 1497 1497 1497 1496 1496 1496 1496 1495 1495 1495 1495 1494 1494 1493 1493 1492 1492 1491 1491 1490 1490 1490 1489 1489 1488 1488 1487 1487 1487 1487 1487 1487 1487 1487 1487 1488 1488 1488 1488 1488 1489 1489 1489 1490 1490 1490 1490 1490 1491 1491 1491 1491 1492 1492 1492 1492 1492 1492 1492 1493 1492 1492
1494 1494 1495 1495 1495 1495 1495 1495 1495 1495 1495 1495 1495 1494 1494 1494 1493 1493 1492 1492 1491 1491 1490 1490 1490 1490 1489 1489 1488 1488 1487 1487 1486 1486 1485 1485 1485 1485 1485 1485 1485 1485 1485 1486 1486 1486 1486 1486 1487 1487 1487 1488 1488 1488 1488 1489 1489 1489 1490 1490 1490 1490 1490 1490 1491 1491 1491 1491 1490
1492 1492 1493 1493 1494 1494 1494 1494 1494 1494 1493 1493 1493 1492 1492 1492 1491 1491 1490 1490 1490 1489 1489 1489 1488 1488 1487 1487 1486 1486 1485 1485 1485 1484 1484 1484 1483 1483 1483 1483 1483 1483 1484 1484 1484 1484 1485 1485 1485 1485 1485 1485 1486 1486 1486 1487 1487 1487 1488 1488 1488 1488 1489 1489 1489 1489 1489 1489 1489
1490 1491 1491 1492 1492 1492 1493 1493 1492 1492 1492 1491 1491 1491 1490 1490 1490 1490 1489 1489 1488 1488 1487 1487 1486 1486 1486 1485 1485 1484 1484 1483 1483 1482 1482 1482 1482 1481 1481 1481 1481 1481 1481 1482 1482 1482 1483 1482 1482 1482 1483 1483 1484 1484 1484 1485 1485 1485 1486 1486 1486 1487 1487 1488 1488 1488 1488 1488 1488
1489 1490 1490 1490 1491 1491 1491 1491 1491 1490 1490 1490 1490 1489 1489 1489 1488 1488 1487 1487 1487 1486 1486 1485 1485 1484 1484 1483 1483 1482 1482 1481 1481 1480 1480 1480 1480 1480 1480 1480 1480 1479 1480 1480 1480 1480 1480 1480 1480 1480 1480 1481 1482 1482 1483 1483 1483 1484 1484 1484 1485 1485 1486 1486 1486 1487 1487 1487 1487
1488 1488 1489 1489 1489 1490 1490 1489 1489 1489 1489 1488 1488 1488 1487 1487 1487 1486 1486 1485 1485 1485 1484 1484 1483 1483 1482 1482 1481 1481 1480 1480 1479 1479 1479 1478 1478 1478 1478 1478 1478 1477 1477 1478 1478 1478 1479 1479 1479 1478 1478 1479 1480 1480 1481 1481 1482 1482 1482 1483 1484 1484 1485 1485 1485 1485 1486 1486 1486
1486 1486 1487 1487 1488 1488 1488 1488 1487 1487 1487 1487 1486 1486 1486 1485 1485 1485 1484 1484 1483 1483 1482 1482 1482 1481 1480 1480 1480 1479 1479 1478 1478 1477 1477 1476 1476 1476 1476 1476 1476 1475 1475 1476 1476 1477 1477 1477 1477 1477 1477 1477 1478 1479 1480 1480 1480 1481 1481 1482 1483 1483 1484 1484 1484 1485 1485 1485 1485
1485 1485 1485 1486 1486 1486 1486 1486 1486 1485 1485 1485 1485 1485 1485 1484 1484 1483 1483 1482 1482 1481 1481 1480 1480 1480 1479 1479 1478 1478 1477 1477 1476 1475 1475 1475 1475 1475 1475 1475 1474 1474 1474 1474 1475 1475 1475 1476 1476 1476 1475 1476 1477 1478 1478 1479 1480 1480 1480 1481 1482 1482 1483 1483 1484 1484 1484 1485 1485
1483 1483 1484 1484 1484 1484 1484 1484 1484 1484 1484 1484 1484 1483 1483 1483 1482 1482 1481 1481 1480 1480 1480 1479 1478 1478 1477 1477 1476 1476 1476 1475 1475 1474 1474 1474 1474 1474 1473 1473 1473 1473 1473 1473 1473 1474 1474 1475 1475 1475 1475 1476 1476 1477 1478 1478 1479 1480 1480 1480 1481 1481 1482 1482 1483 1483 1483 1484 1484
1481 1481 1482 1482 1482 1483 1483 1482 1482 1482 1482 1482 1482 1482 1481 1481 1480 1480 1480 1479 1479 1478 1478 1477 1477 1476 1475 1475 1475 1475 1474 1474 1473 1473 1473 1473 1473 1472 1472 1472 1472 1472 1472 1472 1473 1473 1474 1474 1474 1474 1475 1475 1476 1476 1477 1478 1478 1479 1479 1480 1480 1481 1481 1482 1482 1482 1483 1483 1484
1479 1480 1480 1480 1480 1481 1481 1481 1481 1480 1480 1480 1480 1480 1480 1479 1479 1478 1478 1477 1477 1476 1476 1475 1475 1475 1474 1474 1474 1473 1473 1472 1472 1472 1472 1472 1472 1472 1472 1471 1471 1472 1472 1472 1472 1473 1473 1473 1473 1474 1475 1475 1475 1476 1477 1477 1478 1478 1479 1479 1480 1480 1481 1481 1481 1482 1482 1483 1483
1477 1478 1478 1478 1479 1479 1479 1479 1479 1479 1479 1479 1479 1478 1478 1477 1477 1477 1476 1476 1475 1475 1474 1474 1474 1473 1473 1473 1472 1472 1472 1471 1471 1471 1471 1471 1471 1471 1471 1471 1471 1471 1472 1472 1472 1473 1473 1473 1473 1474 1474 1475 1475 1476 1476 1477 1477 1478 1478 1479 1479 1480 1480 1481 1481 1481 1482 1482 1483
1475 1475 1476 1476 1477 1477 1477 1477 1477 1477 1477 1477 1477 1476 1476 1475 1475 1475 1475 1474 1474 1473 1473 1472 1472 1472 1471 1471 1471 1471 1471 1471 1470 1471 1471 1471 1471 1471 1471 1471 1471 1471 1472 1472 1472 1472 1472 1473 1473 1474 1474 1474 1475 1475 1476 1476 1477 1477 1478 1478 1479 1479 1480 1480 1481 1481 1481 1482 1482
1473 1473 1474 1474 1475 1475 1475 1475 1475 1475 1475 1475 1475 1475 1474 1474 1474 1473 1473 1473 1472 1472 1471 1471 1471 1470 1470 1470 1470 1470 1470 1470 1470 1470 1470 1470 1470 1470 1471 1471 1471 1471 1471 1471 1472 1472 1472 1472 1473 1473 1474 1474 1475 1475 1475 1476 1476 1477 1477 1478 1478 1479 1479 1480 1480 1480 1481 1481 1482
1470 1471 1471 1472 1473 1473 1473 1473 1473 1473 1473 1473 1473 1473 1472 1472 1472 1472 1471 1471 1471 1470 1470 1470 1470 1469 1469 1469 1469 1469 1469 1469 1470 1470 1470 1470 1470 1470 1470 1471 1471 1471 1471 1471 1471 1471 1472 1472 1472 1473 1473 1474 1474 1475 1475 1475 1476 1476 1477 1477 1478 1478 1479 1479 1480 1480 1480 1481 1481
1468 1469 1469 1470 1470 1471 1470 1470 1471 1471 1471 1471 1471 1471 1470 1470 1470 1470 1470 1470 1470 1469 1469 1469 1468 1468 1468 1468 1468 1468 1468 1469 1469 1469 1469 1469 1470 1470 1470 1470 1470 1470 1470 1471 1471 1471 1471 1472 1472 1472 1473 1473 1474 1474 1475 1475 1476 1476 1476 1477 1477 1478 1478 1479 1479 1479 1480 1480 1480
1466 1467 1467 1468 1468 1468 1468 1469 1469 1469 1469 1469 1469 1469 1469 1469 1469 1469 1469 1468 1468 1468 1468 1468 1467 1467 1467 1467 1467 1467 1468 1468 1468 1468 1469 1469 1469 1470 1470 1470 1470 1470 1470 1470 1470 1471 1471 1471 1472 1472 1473 1473 1473 1474 1475 1475 1475 1475 1476 1476 1477 1477 1478 1478 1478 1478 1479 1479 1480
1464 1465 1465 1466 1466 1466 1466 1466 1467 1467 1467 1467 1467 1467 1467 1467 1467 1467 1467 1467 1467 1467 1467 1466 1466 1466 1466 1466 1466 1467 1467 1467 1467 1468 1468 1468 1469 1469 1469 1469 1469 1469 1470 1470 1470 1470 1471 1471 1471 1472 1472 1473 1473 1474 1474 1475 1475 1475 1475 1476 1476 1477 1477 1477 1478 1478 1478 1479 1479